This demonstration page uses our WeatherBlox Daily Observations layout. Learn more.

Left ArrowRight Arrow

Hourly Observations for February 13, 2021

Temp ( °F °C ) Dew Point ( °F °C ) Humidity (%) Winds ( mph kmh ) Pressure ( in mb ) Visibility ( mi km ) Precip ( " mm )
12:54 am 00:54 Cloudy -3 -19.4 -10 -23.3 71 71 N 12 19 30.62 1037 10 16.0934 0.001 0.001
1:54 am 01:54 Cloudy with Light Snow -3 -19.4 -10 -23.3 71 71 N 12 19 30.62 1037 8 12.87472 0.001 0.001
2:54 am 02:54 Cloudy -3 -19.4 -11 -23.9 68 68 NNE 12 19 30.61 1037 10 16.0934 0.001 0.001
3:54 am 03:54 Cloudy -3 -19.4 -11 -23.9 68 68 NNE 10 17 30.6 1036 10 16.0934 0 0
4:54 am 04:54 Cloudy -4 -20 -11 -23.9 71 71 N 6 9 30.61 1037 10 16.0934 0 0
5:54 am 05:54 Cloudy -3 -19.4 -11 -23.9 68 68 N 8 13 30.62 1037 10 16.0934 0 0
6:54 am 06:54 Cloudy with Light Snow -3 -19.4 -10 -23.3 71 71 N 6 9 30.61 1037 4 6.43736 0.001 0.001
7:54 am 07:54 Mostly Cloudy -3 -19.4 -10 -23.3 71 71 N 7 11 30.62 1037 9 14.48406 0.001 0.001
8:54 am 08:54 Sunny -6 -21.1 -13 -25 71 71 N 6 9 30.62 1037 10 16.0934 0 0
9:54 am 09:54 Sunny -1 -18.3 -10 -23.3 65 65 N 3 6 30.63 1037 10 16.0934 0 0
10:54 am 10:54 Sunny 0 -17.8 -9 -22.8 65 65 NNW 6 9 30.63 1037 10 16.0934 0 0
11:51 am 11:51 Mostly Sunny 1 -17 -9 -23 60 60 N 5 7 30.68 1039 10 16.0934 0 0
11:54 am 11:54 Sunny 2 -16.7 -9 -22.8 59 59 NNW 6 9 30.62 1037 10 16.0934 0 0
12:54 pm 12:54 Sunny 4 -15.6 -8 -22.2 57 57 N 6 9 30.6 1036 10 16.0934 0 0
1:54 pm 13:54 Sunny 4 -15.6 -9 -22.8 54 54 N 8 13 30.57 1035 10 16.0934 0.001 0.001
2:54 pm 14:54 Sunny 5 -15 -8 -22.2 54 54 N 7 11 30.56 1035 10 16.0934 0 0
3:54 pm 15:54 Sunny 5 -15 -8 -22.2 54 54 NNW 9 15 30.55 1035 10 16.0934 0 0
4:54 pm 16:54 Partly Cloudy 4 -15.6 -7 -21.7 60 60 NNW 7 11 30.56 1035 10 16.0934 0 0
5:54 pm 17:54 Sunny 3 -16.1 -6 -21.1 66 66 NNW 7 11 30.56 1035 10 16.0934 0 0
6:54 pm 18:54 Clear 2 -16.7 -7 -21.7 65 65 WNW 3 6 30.59 1036 10 16.0934 0 0
7:54 pm 19:54 Clear 2 -16.7 -7 -21.7 65 65 N 9 15 30.58 1036 10 16.0934 0 0
8:54 pm 20:54 Mostly Cloudy 1 -17.2 -8 -22.2 65 65 NNE 15 24 30.58 1036 10 16.0934 0 0
9:54 pm 21:54 Mostly Cloudy 0 -17.8 -10 -23.3 62 62 N 13 20 30.63 1037 10 16.0934 0 0
10:54 pm 22:54 Cloudy 0 -17.8 -11 -23.9 59 59 N 12 19 30.66 1038 10 16.0934 0 0
11:54 pm 23:54 Cloudy 0 -17.8 -12 -24.4 57 57 NNE 13 20 30.66 1038 10 16.0934 0 0

Powered by AerisWeather